Weather History for Staples, MN

Change the Weather History Date:

Monday, October 22, 2012

  Actual Average Record
Temperature  
Mean Temperature 50 °F -  
Max Temperature 55 °F 49 °F 66 °F (2000)
Min Temperature 44 °F 33 °F 21 °F (2002)
Degree Days  
Heating Degree Days 16    
Moisture  
Dew Point 43 °F    
Average Humidity 80    
Maximum Humidity 100    
Minimum Humidity 63    
Precipitation  
Precipitation 0.00 in - - ()
Sea Level Pressure  
Sea Level Pressure 29.98 in    
Wind  
Wind Speed 8 mph (NE)    
Max Wind Speed 12 mph    
Max Gust Speed 20 mph    
Visibility 10 miles    
Events      
Averages and records for this station are not official NWS values.
T = Trace of Precipitation, MM = Missing Value Source: NWS Daily Summary

Daily Weather History Graph

Daily Weather History Graph

Search for Another Location

Airport:

Trip Planner

Search our weather history database for the weather conditions in past years. The results will help you decide how hot, cold, wet, or windy it might be!

Date:

Astronomy

Oct. 22, 2012 Rise Set
Actual Time 7:47 AM CDT 6:19 PM CDT
Civil Twilight 7:16 AM CDT 6:50 PM CDT
Nautical Twilight 6:41 AM CDT 7:25 PM CDT
Astronomical Twilight 6:06 AM CDT 8:00 PM CDT
Moon 2:49 PM CDT (10/22) 12:11 AM CDT (10/22)
Length of Visible Light 11h 33m
Length of Day
10h 32m
First Quarter, 56% of the Moon is Illuminated
Oct 22
First Quarter
Oct 29
Full
Nov 6
Last Quarter
Nov 13
New
Nov 20
First Quarter

Hourly Weather History & Observations

Time (CDT) Temp. Windchill Dew Point Humidity Pressure Visibility Wind Dir Wind Speed Gust Speed Precip Events Conditions
12:13 AM 46.4 °F 45.2 °F 44.6 °F 93% 29.96 in 10.0 mi North 3.5 mph - N/A   Clear
12:53 AM 46.4 °F 42.9 °F 44.6 °F 93% 29.98 in 10.0 mi NNW 6.9 mph - N/A   Scattered Clouds
1:13 AM 46.4 °F 42.4 °F 46.4 °F 100% 29.98 in 10.0 mi North 8.1 mph - N/A   Scattered Clouds
1:34 AM 46.4 °F 42.4 °F 46.4 °F 100% 29.98 in 10.0 mi North 8.1 mph - N/A   Clear
1:53 AM 46.4 °F 42.9 °F 44.6 °F 93% 29.98 in 10.0 mi North 6.9 mph - N/A   Clear
2:13 AM 46.4 °F 42.4 °F 46.4 °F 100% 29.98 in 7.0 mi North 8.1 mph - N/A   Mostly Cloudy
2:34 AM 48.2 °F - 46.4 °F 93% 29.98 in 10.0 mi North 6.9 mph - N/A   Overcast
2:53 AM 48.2 °F - 46.4 °F 93% 29.98 in 10.0 mi North 8.1 mph - N/A   Overcast
3:13 AM 48.2 °F - 46.4 °F 93% 29.98 in 10.0 mi North 8.1 mph - N/A   Overcast
3:53 AM 48.2 °F - 44.6 °F 87% 29.98 in 10.0 mi NNE 6.9 mph - N/A   Overcast
4:13 AM 46.4 °F 42.4 °F 44.6 °F 93% 29.98 in 10.0 mi North 8.1 mph - N/A   Overcast
4:34 AM 46.4 °F 41.5 °F 44.6 °F 93% 29.98 in 10.0 mi NNE 10.4 mph - N/A   Overcast
4:54 AM 46.4 °F 42.9 °F 44.6 °F 93% 29.98 in 10.0 mi NNE 6.9 mph 19.6 mph N/A   Overcast
5:13 AM 46.4 °F 42.4 °F 44.6 °F 93% 29.98 in 10.0 mi NNE 8.1 mph - N/A   Overcast
5:33 AM 46.4 °F 41.9 °F 42.8 °F 87% 29.99 in 10.0 mi NNE 9.2 mph - N/A   Overcast
5:53 AM 46.4 °F 41.9 °F 42.8 °F 87% 29.99 in 10.0 mi NNE 9.2 mph - N/A   Overcast
6:14 AM 46.4 °F 42.4 °F 42.8 °F 87% 30.01 in 10.0 mi NNE 8.1 mph - N/A   Overcast
6:33 AM 46.4 °F 42.9 °F 42.8 °F 87% 30.01 in 10.0 mi NNE 6.9 mph - N/A   Overcast
6:53 AM 46.4 °F 42.4 °F 42.8 °F 87% 30.02 in 10.0 mi NNE 8.1 mph - N/A   Overcast
7:14 AM 44.6 °F 39.7 °F 41.0 °F 87% 30.02 in 10.0 mi NNE 9.2 mph - N/A   Overcast
7:33 AM 44.6 °F 39.2 °F 41.0 °F 87% 30.02 in 10.0 mi NNE 10.4 mph 17.3 mph N/A   Overcast
7:53 AM 44.6 °F 40.7 °F 41.0 °F 87% 30.03 in 10.0 mi NNE 6.9 mph 16.1 mph N/A   Overcast
8:13 AM 44.6 °F 40.2 °F 41.0 °F 87% 30.03 in 10.0 mi NNE 8.1 mph - N/A   Overcast
8:33 AM 44.6 °F 40.7 °F 41.0 °F 87% 30.03 in 10.0 mi NE 6.9 mph - N/A   Overcast
8:54 AM 44.6 °F 40.7 °F 41.0 °F 87% 30.02 in 10.0 mi NE 6.9 mph - N/A   Overcast
9:13 AM 44.6 °F 38.8 °F 41.0 °F 87% 30.03 in 10.0 mi NE 11.5 mph - N/A   Overcast
9:33 AM 44.6 °F 40.7 °F 41.0 °F 87% 30.04 in 10.0 mi NE 6.9 mph - N/A   Overcast
9:54 AM 46.4 °F 43.5 °F 41.0 °F 81% 30.04 in 10.0 mi NE 5.8 mph - N/A   Overcast
10:13 AM 46.4 °F 42.4 °F 41.0 °F 81% 30.04 in 10.0 mi NE 8.1 mph - N/A   Overcast
10:33 AM 46.4 °F 42.4 °F 41.0 °F 81% 30.04 in 10.0 mi NE 8.1 mph - N/A   Overcast
10:54 AM 46.4 °F 43.5 °F 42.8 °F 87% 30.04 in 10.0 mi ENE 5.8 mph - N/A   Overcast
11:13 AM 48.2 °F - 42.8 °F 82% 30.04 in 10.0 mi ENE 8.1 mph - N/A   Overcast
11:33 AM 48.2 °F - 42.8 °F 82% 30.03 in 10.0 mi East 8.1 mph - N/A   Overcast
11:54 AM 48.2 °F - 42.8 °F 82% 30.03 in 10.0 mi ENE 5.8 mph 9.2 mph N/A   Overcast
12:13 PM 50.0 °F - 42.8 °F 76% 30.02 in 10.0 mi ENE 6.9 mph - N/A   Mostly Cloudy
12:33 PM 51.8 °F - 42.8 °F 71% 30.02 in 10.0 mi ENE 11.5 mph - N/A   Scattered Clouds
12:54 PM 51.8 °F - 42.8 °F 71% 30.01 in 10.0 mi ENE 8.1 mph - N/A   Clear
1:13 PM 53.6 °F - 42.8 °F 67% 30.00 in 10.0 mi ENE 10.4 mph 16.1 mph N/A   Scattered Clouds
1:34 PM 53.6 °F - 42.8 °F 67% 29.99 in 10.0 mi East 8.1 mph - N/A   Clear
1:53 PM 53.6 °F - 42.8 °F 67% 29.99 in 10.0 mi NE 6.9 mph - N/A   Scattered Clouds
2:14 PM 55.4 °F - 42.8 °F 63% 29.98 in 10.0 mi ESE 9.2 mph - N/A   Clear
2:33 PM 55.4 °F - 42.8 °F 63% 29.97 in 10.0 mi East 8.1 mph 16.1 mph N/A   Clear
2:53 PM 55.4 °F - 42.8 °F 63% 29.97 in 10.0 mi East 10.4 mph 16.1 mph N/A   Clear
3:14 PM 55.4 °F - 42.8 °F 63% 29.96 in 10.0 mi ENE 9.2 mph 17.3 mph N/A   Clear
3:33 PM 55.4 °F - 42.8 °F 63% 29.96 in 10.0 mi East 11.5 mph 17.3 mph N/A   Clear
3:53 PM 55.4 °F - 42.8 °F 63% 29.95 in 10.0 mi East 6.9 mph 16.1 mph N/A   Clear
4:14 PM 55.4 °F - 42.8 °F 63% 29.96 in 10.0 mi ENE 10.4 mph 16.1 mph N/A   Scattered Clouds
4:33 PM 53.6 °F - 44.6 °F 72% 29.96 in 10.0 mi ENE 6.9 mph 16.1 mph N/A   Scattered Clouds
4:53 PM 53.6 °F - 42.8 °F 67% 29.96 in 10.0 mi ENE 6.9 mph 16.1 mph N/A   Mostly Cloudy
5:14 PM 53.6 °F - 44.6 °F 72% 29.95 in 10.0 mi ENE 11.5 mph - N/A   Overcast
5:33 PM 53.6 °F - 42.8 °F 67% 29.94 in 10.0 mi ENE 10.4 mph 17.3 mph N/A   Overcast
5:53 PM 53.6 °F - 42.8 °F 67% 29.95 in 10.0 mi East 10.4 mph - N/A   Overcast
6:13 PM 53.6 °F - 42.8 °F 67% 29.95 in 10.0 mi ENE 8.1 mph - N/A   Overcast
6:33 PM 51.8 °F - 42.8 °F 71% 29.94 in 10.0 mi East 10.4 mph - N/A   Overcast
6:54 PM 51.8 °F - 42.8 °F 71% 29.94 in 10.0 mi ENE 10.4 mph - N/A   Overcast
7:13 PM 51.8 °F - 42.8 °F 71% 29.94 in 10.0 mi East 11.5 mph - N/A   Overcast
7:33 PM 51.8 °F - 42.8 °F 71% 29.95 in 10.0 mi East 5.8 mph - N/A   Overcast
7:54 PM 51.8 °F - 42.8 °F 71% 29.95 in 10.0 mi East 11.5 mph 17.3 mph N/A   Overcast
8:54 PM 48.2 °F - 42.8 °F 82% 29.94 in 10.0 mi East 5.8 mph - N/A   Overcast
9:13 PM 48.2 °F - 42.8 °F 82% 29.94 in 10.0 mi East 6.9 mph - N/A   Light Drizzle
9:33 PM 48.2 °F - 42.8 °F 82% 29.93 in 10.0 mi East 10.4 mph - N/A   Overcast
9:53 PM 48.2 °F - 42.8 °F 82% 29.93 in 10.0 mi East 9.2 mph - N/A   Overcast
10:14 PM 48.2 °F - 42.8 °F 82% 29.92 in 10.0 mi East 8.1 mph - N/A   Overcast
10:33 PM 48.2 °F - 42.8 °F 82% 29.92 in 10.0 mi East 4.6 mph - N/A   Overcast
10:53 PM 48.2 °F - 42.8 °F 82% 29.91 in 10.0 mi East 6.9 mph - N/A   Overcast
11:14 PM 48.2 °F - 42.8 °F 82% 29.91 in 10.0 mi East 8.1 mph - N/A   Overcast
11:33 PM 48.2 °F - 42.8 °F 82% 29.90 in 10.0 mi East 5.8 mph - N/A   Overcast